TimeCST,TemperatureF,Dew PointF,Humidity,Sea Level PressureIn,VisibilityMPH,Wind Direction,Wind SpeedMPH,Gust SpeedMPH,PrecipitationIn,Events,Conditions,WindDirDegrees,DateUTC
12:56 AM,1.0,-2.9,83,30.46,-9999.0,Calm,Calm,-,N/A,,Unknown,0,2013-03-02 06:56:00
1:56 AM,-0.9,-4.0,87,30.44,-9999.0,Calm,Calm,-,N/A,,Unknown,0,2013-03-02 07:56:00
2:56 AM,-0.0,-4.0,83,30.44,-9999.0,Calm,Calm,-,N/A,,Unknown,0,2013-03-02 08:56:00
3:56 AM,1.0,-0.9,91,30.41,-9999.0,South,5.8,-,N/A,,Unknown,180,2013-03-02 09:56:00
4:56 AM,5.0,1.9,87,30.40,-9999.0,South,5.8,-,N/A,,Unknown,180,2013-03-02 10:56:00
5:56 AM,8.1,5.0,87,30.38,-9999.0,South,6.9,-,N/A,,Unknown,170,2013-03-02 11:56:00
6:56 AM,6.1,3.0,87,30.39,-9999.0,SE,4.6,-,N/A,,Unknown,140,2013-03-02 12:56:00
7:56 AM,8.1,5.0,87,30.38,-9999.0,SSE,8.1,-,N/A,,Unknown,160,2013-03-02 13:56:00
8:56 AM,14.0,10.0,84,30.37,-9999.0,South,9.2,-,N/A,,Unknown,180,2013-03-02 14:56:00
9:56 AM,14.0,10.9,88,30.37,-9999.0,SSE,10.4,-,N/A,,Unknown,160,2013-03-02 15:56:00
10:56 AM,18.0,14.0,84,30.34,-9999.0,SSE,11.5,-,N/A,,Unknown,160,2013-03-02 16:56:00
11:56 AM,19.9,16.0,85,30.33,-9999.0,South,11.5,-,N/A,,Unknown,170,2013-03-02 17:56:00
12:56 PM,21.9,17.1,82,30.30,-9999.0,South,15.0,-,N/A,,Unknown,170,2013-03-02 18:56:00
1:56 PM,23.0,18.0,81,30.26,-9999.0,SSE,16.1,-,N/A,,Unknown,160,2013-03-02 19:56:00
2:56 PM,24.1,19.0,81,30.25,-9999.0,South,15.0,-,N/A,,Unknown,170,2013-03-02 20:56:00
3:56 PM,24.1,19.0,81,30.23,-9999.0,South,16.1,-,N/A,,Unknown,170,2013-03-02 21:56:00
4:56 PM,25.0,19.9,81,30.21,-9999.0,SSE,16.1,-,N/A,,Unknown,160,2013-03-02 22:56:00
5:56 PM,24.1,19.9,84,30.20,-9999.0,SSE,12.7,-,N/A,,Unknown,160,2013-03-02 23:56:00
6:56 PM,23.0,19.0,85,30.21,-9999.0,SSE,12.7,-,N/A,,Unknown,160,2013-03-03 00:56:00
7:56 PM,21.9,18.0,85,30.21,-9999.0,SSE,12.7,-,N/A,,Unknown,150,2013-03-03 01:56:00
8:56 PM,21.0,17.1,85,30.19,-9999.0,SSE,9.2,-,N/A,,Unknown,150,2013-03-03 02:56:00
9:56 PM,17.1,14.0,88,30.18,-9999.0,South,8.1,-,N/A,,Unknown,190,2013-03-03 03:56:00
10:56 PM,18.0,15.1,88,30.15,-9999.0,South,10.4,-,N/A,,Unknown,180,2013-03-03 04:56:00
11:56 PM,16.0,14.0,92,30.13,-9999.0,South,4.6,-,N/A,,Unknown,170,2013-03-03 05:56:00